User: anonymous
Location: Maiden
(35.5760°N, 81.2120°W)
Time: 07:43:03
(UTC-04:00)
Language:

Cosmos 2151 - Orbit

View from above orbital plane
View from above orbital plane
View from above satellite
View from above satellite

Ground track
Ground track

The orbit data is extracted from the following two-line orbital elements,

1 21422U 91042A   14113.82060827  .00002222  00000-0  22739-3 0  8757
2 21422 082.5005 260.0262 0015429 167.4441 192.7165 14.90026194237064
Epoch (UTC): 23 April 2014 19:41:40
Eccentricity: 0.0015429
inclination: 82.5005°
perigee height: 587 km
apogee height: 608 km
right ascension of ascending node: 260.0262°
argument of perigee: 167.4441°
revolutions per day: 14.90026194
mean anomaly at epoch: 192.7165°
orbit number at epoch: 23706

The dashed part of the orbit path shows where the satellite is in the earth's shadow,  

DLR